Content
SEND FEEDBACK

Daily
Averages
Monthly
Summary
Canada

QUEBEC CITY, QUEBEC


Home > North America > Canada > Quebec
Elevation: 239 feet     Latitude: 46 48N     Longitude: 071 23W

WEATHER
 
SELECT A DAY
Number of Records: 196,112;   Date Range: 6/30/96 - 10/29/14
 
SHARE

PRINT THIS DATA

[ ← Previous Day ]
WEATHER ALMANAC - MAY 10, 2013
[ Next Day → ]
[ °C ]   °F
Weather ElementAverageHighLow
Temperature57.2 °F61 °F (2:00 pm)53 °F (11:00 pm)
Dewpoint47.1 °F55.4 °F (1:00 am)37.4 °F (9:00 pm)
Humidity67.9 %99 % (2:00 am)47 % (11:00 pm)
Barometer29.95 in30.00 in (11:00 am)29.85 in (2:00 am)
Wind Speed10.1 mph21.9 mph (10:00 pm)
Wind Gust31.1 mph (10:00 pm)
Weather ElementAverage
Visibility21.9 mi
Wind DirectionSSE (147.1 °)

Weather ElementTotal
Precipitation---
Heating Degree Days8 (Base 65)
Growing Degree Days7 (Base 50)
Averaged from 31 records on May 10, 2013
WEATHER CONDITIONS BREAKOUT
WIND DIRECTION BREAKOUT
WEATHER BY HOUR - MAY 10, 2013
[ °C ]   °F
Local TimeTemperatureDewpointHumidityBarometerVisibilityWind DirectionWind SpeedGust SpeedPrecipitationEventsConditions
1:00 AM57.2 °F55.4 °F94 %29.87 in15.0 miCalmScattered Clouds
2:00 AM54.0 °F54.0 °F99 %29.85 inNW (320°)2.3 mph
2:00 AM57.2 °F55.4 °F94 %29.87 in15.0 miNNW (330°)4.6 mphMostly Cloudy
3:00 AM57.2 °F53.6 °F88 %29.88 in15.0 miNNW (340°)4.6 mphOvercast
4:00 AM57.2 °F51.8 °F82 %29.89 in15.0 miNNW (340°)5.8 mphOvercast
5:00 AM57.0 °F53.0 °F80 %29.89 inNNW (330°)4.6 mph
5:00 AM57.2 °F51.8 °F82 %29.91 in15.0 miNW (320°)4.6 mphMostly Cloudy
6:00 AM55.4 °F48.2 °F77 %29.93 in30.0 miNNW (330°)5.8 mphScattered Clouds
7:00 AM53.6 °F44.6 °F72 %29.96 in30.0 miNNW (330°)6.9 mphMostly Cloudy
8:00 AM57.0 °F48.0 °F62 %29.95 inNorth (350°)8.1 mph
8:00 AM57.2 °F46.4 °F67 %29.97 in30.0 miNorth (10°)8.1 mphScattered Clouds
9:00 AM59.0 °F48.2 °F67 %29.98 in30.0 miENE (60°)5.8 mphMostly Cloudy
10:00 AM57.2 °F50.0 °F77 %29.99 in30.0 miEast (90°)8.1 mphMostly Cloudy
11:00 AM58.0 °F50.0 °F68 %29.97 inEast (90°)9.2 mph
11:00 AM59.0 °F51.8 °F77 %30.00 in30.0 miENE (70°)8.1 mphScattered Clouds
12:00 PM60.8 °F50.0 °F68 %30.00 in30.0 miEast (90°)9.2 mphPartly Cloudy
1:00 PM60.8 °F50.0 °F68 %30.00 in30.0 miENE (70°)15.0 mphPartly Cloudy
2:00 PM61.0 °F49.0 °F56 %29.96 inEast (100°)11.5 mph
2:00 PM60.8 °F48.2 °F63 %29.99 in30.0 miENE (70°)13.8 mphPartly Cloudy
3:00 PM60.8 °F48.2 °F63 %29.99 in30.0 miEast (90°)13.8 mphScattered Clouds
4:00 PM60.8 °F46.4 °F59 %29.99 in30.0 miEast (80°)12.7 mphScattered Clouds
5:00 PM59.0 °F46.0 °F52 %29.96 inEast (90°)11.5 mph
5:00 PM59.0 °F44.6 °F59 %29.99 in15.0 miEast (80°)12.7 mph19.6 mphScattered Clouds
6:00 PM55.4 °F41.0 °F58 %29.99 in15.0 miEast (90°)12.7 mph20.7 mphMostly Cloudy
7:00 PM55.4 °F41.0 °F58 %29.98 in15.0 miENE (60°)16.1 mphOvercast
8:00 PM55.0 °F41.0 °F48 %29.97 inENE (70°)9.2 mph
8:00 PM55.4 °F41.0 °F58 %29.99 in15.0 miEast (80°)13.8 mphOvercast
9:00 PM55.4 °F37.4 °F51 %29.99 in15.0 miEast (80°)18.4 mphRainLight Rain
10:00 PM53.6 °F37.4 °F54 %29.99 in12.0 miENE (70°)21.9 mph31.1 mphRainLight Rain
11:00 PM53.0 °F39.0 °F47 %29.94 inENE (70°)13.8 mph
11:00 PM53.6 °F39.2 °F58 %29.96 in12.0 miENE (60°)20.7 mphRainLight Rain
Hourly data recorded from CYQB, located miles away from Quebec City, Quebec







STORIES FROM OUR PARTNERS